QPF
0.00 0.00 0.00 0.00 0.00 0.00 0.00 0.00 0.00 0.00 0.00 0.00 0.00 0.00 0.00 0.00 0.00 0.00 0.00 0.00 0.00 0.00 0.00 0.00 0.00 0.00 0.00 0.00 0.00 0.00 0.00 0.00 0.00 0.00 0.00 0.00 0.00 0.00 0.00 0.00 0.00 0.00 0.00 0.00 0.00
0.00 0.00 0.00 0.00 0.00 0.00 0.00 0.00 0.00 0.00 0.00 0.00 0.00 0.00 0.00 0.00 0.00 0.00 0.00 0.00 0.00 0.00 0.00 0.00 0.00 0.00 0.00 0.00 0.00 0.00 0.00 0.00 0.00 0.00 0.00 0.00 0.00 0.00 0.00 0.00 0.00 0.00 0.00 0.00 0.00
0.00 0.00 0.00 0.00 0.00 0.00 0.00 0.00 0.00 0.00 0.00 0.00 0.00 0.00 0.00 0.00 0.00 0.00 0.00 0.00 0.00 0.00 0.00 0.00 0.00 0.00 0.00 0.00 0.00 0.00 0.00 0.00 0.00 0.00 0.00 0.00 0.00 0.00 0.00 0.00 0.00 0.00 0.00 0.00 0.00
0.00 0.00 0.00 0.00 0.00 0.00 0.00 0.00 0.00 0.00 0.00 0.00 0.00 0.00 0.00 0.00 0.00 0.00 0.00 0.00 0.00 0.00 0.00 0.00 0.00 0.00 0.00 0.00 0.00 0.00 0.00 0.00 0.00 0.00 0.00 0.00 0.00 0.00 0.00 0.00 0.00 0.00 0.00 0.00 0.00
0.00 0.00 0.00 0.00 0.00 0.00 0.00 0.00 0.00 0.00 0.00 0.00 0.00 0.00 0.00 0.00 0.00 0.00 0.00 0.00 0.00 0.00 0.00 0.00 0.00 0.00 0.00 0.00 0.00 0.00 0.00 0.00 0.00 0.00 0.00 0.00 0.00 0.00 0.00 0.00 0.00 0.00 0.00 0.00 0.00
0.00 0.00 0.00 0.00 0.00 0.00 0.00 0.00 0.00 0.00 0.00 0.00 0.00 0.00 0.00 0.00 0.00 0.00 0.00 0.00 0.00 0.00 0.00 0.00 0.00 0.00 0.00 0.00 0.00 0.00 0.00 0.00 0.00 0.00 0.00 0.00 0.00 0.00 0.00 0.00 0.00 0.00 0.00 0.00 0.00
0.00 0.00 0.00 0.00 0.00 0.00 0.00 0.00 0.00 0.00 0.00 0.00 0.00 0.00 0.00 0.00 0.00 0.00 0.00 0.00 0.00 0.00 0.00 0.00 0.00 0.00 0.00 0.00 0.00 0.00 0.00 0.00 0.00 0.00 0.00 0.00 0.00 0.00 0.00 0.00 0.00 0.00 0.00 0.00 0.00
0.00 0.00 0.00 0.00 0.00 0.00 0.00 0.00 0.00 0.00 0.00 0.00 0.00 0.00 0.00 0.00 0.00 0.00 0.00 0.00 0.00 0.00 0.00 0.00 0.00 0.00 0.00 0.00 0.00 0.00 0.00 0.00 0.00 0.00 0.00 0.00 0.00 0.00 0.00 0.00 0.00 0.00 0.00 0.00 0.00
0.00 0.00 0.00 0.00 0.00 0.00 0.00 0.00 0.00 0.00 0.00 0.00 0.00 0.00 0.00 0.00 0.00 0.00 0.00 0.00 0.00 0.00 0.00 0.00 0.00 0.00 0.00 0.00 0.00 0.00 0.00 0.00 0.00 0.00 0.00 0.00 0.00 0.00 0.00 0.00 0.00 0.00 0.00 0.00 0.00
0.00 0.00 0.00 0.00 0.00 0.00 0.00 0.00 0.00 0.00 0.00 0.00 0.00 0.00 0.00 0.00 0.00 0.00 0.00 0.00 0.00 0.00 0.00 0.00 0.00 0.00 0.00 0.00 0.00 0.00 0.00 0.00 0.00 0.00 0.00 0.00 0.00 0.00 0.00 0.00 0.00 0.00 0.00 0.00 0.00
0.00 0.00 0.00 0.00 0.00 0.00 0.00 0.00 0.00 0.00 0.00 0.00 0.00 0.00 0.00 0.00 0.00 0.00 0.00 0.00 0.00 0.00 0.00 0.00 0.00 0.00 0.00 0.00 0.00 0.00 0.00 0.00 0.00 0.00 0.00 0.00 0.00 0.00 0.00 0.00 0.00 0.00 0.00 0.00 0.00
0.00 0.00 0.00 0.00 0.00 0.00 0.00 0.00 0.00 0.00 0.00 0.00 0.00 0.00 0.00 0.00 0.00 0.00 0.00 0.00 0.00 0.00 0.00 0.00 0.00 0.00 0.00 0.00 0.00 0.00 0.00 0.00 0.00 0.00 0.00 0.00 0.00 0.00 0.00 0.00 0.00 0.00 0.00 0.00 0.00
0.00 0.00 0.00 0.00 0.00 0.00 0.00 0.00 0.00 0.00 0.00 0.00 0.00 0.00 0.00 0.00 0.00 0.00 0.00 0.00 0.00 0.00 0.00 0.00 0.00 0.00 0.00 0.00 0.00 0.00 0.00 0.00 0.00 0.00 0.00 0.00 0.00 0.00 0.00 0.00 0.00 0.00 0.00 0.00 0.00
0.00 0.00 0.00 0.00 0.00 0.00 0.00 0.00 0.00 0.00 0.00 0.00 0.00 0.00 0.00 0.00 0.00 0.00 0.00 0.00 0.00 0.00 0.00 0.00 0.00 0.00 0.00 0.00 0.00 0.00 0.00 0.00 0.00 0.00 0.00 0.00 0.00 0.00 0.00 0.00 0.00 0.00 0.00 0.00 0.00
0.00 0.00 0.00 0.00 0.00 0.00 0.00 0.00 0.00 0.00 0.00 0.00 0.00 0.00 0.00 0.00 0.00 0.00 0.00 0.00 0.00 0.00 0.00 0.00 0.00 0.00 0.00 0.00 0.00 0.00 0.00 0.00 0.00 0.00 0.00 0.00 0.00 0.00 0.00 0.00 0.00 0.00 0.00 0.00 0.00
0.00 0.00 0.00 0.00 0.00 0.00 0.00 0.00 0.00 0.00 0.00 0.00 0.00 0.00 0.00 0.00 0.00 0.00 0.00 0.00 0.00 0.00 0.00 0.00 0.00 0.00 0.00 0.00 0.00 0.00 0.00 0.00 0.00 0.00 0.00 0.00 0.00 0.00 0.00 0.00 0.00 0.00 0.00 0.00 0.00
0.00 0.00 0.00 0.00 0.00 0.00 0.00 0.00 0.00 0.00 0.00 0.00 0.00 0.00 0.00 0.00 0.00 0.00 0.00 0.00 0.00 0.00 0.00 0.00 0.00 0.00 0.00 0.00 0.00 0.00 0.00 0.00 0.00 0.00 0.00 0.00 0.00 0.00 0.00 0.00 0.00 0.00 0.00 0.00 0.00
0.00 0.00 0.00 0.00 0.00 0.00 0.00 0.00 0.00 0.00 0.00 0.00 0.00 0.00 0.00 0.00 0.00 0.00 0.00 0.00 0.00 0.00 0.00 0.00 0.00 0.00 0.00 0.00 0.00 0.00 0.00 0.00 0.00 0.00 0.00 0.00 0.00 0.00 0.00 0.00 0.00 0.00 0.00 0.00 0.00
0.00 0.00 0.00 0.00 0.00 0.00 0.00 0.00 0.00 0.00 0.00 0.00 0.00 0.00 0.00 0.00 0.00 0.00 0.00 0.00 0.00 0.00 0.00 0.00 0.00 0.00 0.00 0.00 0.00 0.00 0.00 0.00 0.00 0.00 0.00 0.00 0.00 0.00 0.00 0.00 0.00 0.00 0.00 0.00 0.00
0.00 0.00 0.00 0.00 0.00 0.00 0.00 0.00 0.00 0.00 0.00 0.00 0.00 0.00 0.00 0.00 0.00 0.00 0.00 0.00 0.00 0.00 0.00 0.00 0.00 0.00 0.00 0.00 0.00 0.00 0.00 0.00 0.00 0.00 0.00 0.00 0.00 0.00 0.00 0.00 0.00 0.00 0.00 0.00 0.00
0.00 0.00 0.00 0.00 0.00 0.00 0.00 0.00 0.00 0.00 0.00 0.00 0.00 0.00 0.00 0.00 0.00 0.00 0.00 0.00 0.00 0.00 0.00 0.00 0.00 0.00 0.00 0.00 0.00 0.00 0.00 0.00 0.00 0.00 0.00 0.00 0.00 0.00 0.00 0.00 0.00 0.00 0.00 0.00 0.00
0.00 0.00 0.00 0.00 0.00 0.00 0.00 0.00 0.00 0.00 0.00 0.00 0.00 0.00 0.00 0.00 0.00 0.00 0.00 0.00 0.00 0.00 0.00 0.00 0.00 0.00 0.00 0.00 0.00 0.00 0.00 0.00 0.00 0.00 0.00 0.00 0.00 0.00 0.00 0.00 0.00 0.00 0.00 0.00 0.00
0.00 0.00 0.00 0.00 0.00 0.00 0.00 0.00 0.00 0.00 0.00 0.00 0.00 0.00 0.00 0.00 0.00 0.00 0.00 0.00 0.00 0.00 0.00 0.00 0.00 0.00 0.00 0.00 0.00 0.00 0.00 0.00 0.00 0.00 0.00 0.00 0.00 0.00 0.00 0.00 0.00 0.00 0.00 0.00 0.00
0.00 0.00 0.00 0.00 0.00 0.00 0.00 0.00 0.00 0.00 0.00 0.00 0.00 0.00 0.00 0.00 0.00 0.00 0.00 0.00 0.00 0.00 0.00 0.00 0.00 0.00 0.00 0.00 0.00 0.00 0.00 0.00 0.00 0.00 0.00 0.00 0.00 0.00 0.00 0.00 0.00 0.00 0.00 0.00 0.00
0.00 0.00 0.00 0.00 0.00 0.00 0.00 0.00 0.00 0.00 0.00 0.00 0.00 0.00 0.00 0.00 0.00 0.00 0.00 0.00 0.00 0.00 0.00 0.00 0.00 0.00 0.00 0.00 0.00 0.00 0.00 0.00 0.00 0.00 0.00 0.00 0.00 0.00 0.00 0.00 0.00 0.00 0.00 0.00 0.00
0.00 0.00 0.00 0.00 0.00 0.00 0.00 0.00 0.00 0.00 0.00 0.00 0.00 0.00 0.00 0.00 0.00 0.00 0.00 0.00 0.00 0.00 0.00 0.00 0.00 0.00 0.00 0.00 0.00 0.00 0.00 0.00 0.00 0.00 0.00 0.00 0.00 0.00 0.00 0.00 0.00 0.00 0.00 0.00 0.00
0.00 0.00 0.00 0.00 0.00 0.00 0.00 0.00 0.00 0.00 0.00 0.00 0.00 0.00 0.00 0.00 0.00 0.00 0.00 0.00 0.00 0.00 0.00 0.00 0.00 0.00 0.00 0.00 0.00 0.00 0.00 0.00 0.00 0.00 0.00 0.00 0.00 0.00 0.00 0.00 0.00 0.00 0.00 0.00 0.00
MSLP
1019.07 1018.91 1018.70 1018.42 1018.15 1017.85 1017.48 1017.07 1016.67 1016.10 1015.54 1014.97 1014.48 1013.86 1013.07 1012.55 1011.47 1010.97 1010.80 1009.99 1009.70 1009.53 1009.55 1008.86 1007.98 1008.26 1007.82 1008.10 1008.38 1009.33 1012.47 1014.88 1015.84 1015.98 1017.65 1017.47 1016.87 1017.93 1018.07 1018.12 1018.66 1019.38 1020.56 1021.81 1022.72
1019.05 1018.88 1018.66 1018.43 1018.18 1017.84 1017.48 1017.04 1016.61 1016.03 1015.41 1014.77 1014.30 1013.74 1012.99 1012.79 1012.08 1010.95 1009.79 1009.40 1009.26 1009.48 1009.14 1009.33 1009.15 1008.78 1008.81 1008.83 1009.10 1010.43 1013.28 1014.56 1014.84 1015.73 1016.88 1017.62 1017.24 1018.17 1018.80 1019.43 1020.36 1021.12 1021.98 1022.49 1022.96
1018.92 1018.90 1018.66 1018.34 1017.99 1017.76 1017.33 1016.84 1016.39 1015.90 1015.35 1014.74 1014.17 1013.58 1012.86 1012.75 1012.05 1010.57 1009.40 1009.08 1008.97 1009.32 1009.37 1009.46 1009.31 1009.32 1009.72 1009.71 1010.45 1012.13 1014.10 1014.73 1015.95 1016.27 1016.73 1017.80 1018.45 1019.13 1019.19 1020.77 1021.34 1021.97 1022.73 1023.20 1023.55
1018.78 1018.73 1018.62 1018.26 1017.87 1017.51 1017.17 1016.79 1016.23 1015.70 1015.27 1014.88 1014.21 1013.40 1012.66 1012.38 1011.73 1009.97 1009.17 1009.04 1008.96 1008.95 1009.22 1009.29 1009.09 1009.34 1010.49 1011.37 1011.77 1013.45 1014.99 1014.95 1016.69 1017.09 1017.41 1018.28 1019.12 1020.22 1020.16 1021.40 1021.83 1022.45 1023.01 1023.41 1024.13
1018.83 1018.54 1018.46 1018.15 1017.71 1017.33 1016.95 1016.48 1015.97 1015.47 1015.13 1014.91 1014.28 1013.45 1012.45 1011.98 1010.96 1009.31 1009.19 1009.00 1008.75 1008.66 1009.13 1009.07 1009.42 1009.98 1010.94 1012.24 1012.89 1014.07 1015.76 1016.30 1017.02 1017.69 1018.24 1018.68 1019.94 1020.40 1021.47 1021.90 1022.13 1022.66 1023.20 1024.04 1024.84
1018.80 1018.55 1018.24 1018.05 1017.63 1017.17 1016.69 1016.28 1015.79 1015.30 1014.88 1014.80 1014.24 1013.50 1013.06 1011.60 1009.60 1009.33 1009.20 1009.13 1009.14 1009.06 1009.11 1009.11 1009.69 1010.12 1011.19 1012.23 1012.75 1015.06 1016.02 1017.22 1017.86 1018.31 1018.95 1019.03 1020.44 1020.44 1022.30 1022.13 1022.77 1023.22 1024.14 1024.82 1025.45
1018.66 1018.50 1018.15 1017.91 1017.60 1017.14 1016.51 1015.97 1015.45 1014.85 1014.45 1014.44 1014.09 1013.75 1012.80 1010.65 1009.33 1009.37 1009.37 1009.30 1009.13 1008.96 1008.97 1008.97 1009.38 1009.90 1011.06 1012.83 1013.87 1015.10 1016.66 1018.06 1018.60 1018.51 1019.32 1019.38 1021.02 1021.44 1022.05 1022.18 1023.24 1024.01 1024.65 1025.30 1026.12
1018.54 1018.34 1018.07 1017.75 1017.47 1016.96 1016.34 1015.53 1014.80 1014.23 1013.90 1013.99 1013.94 1013.46 1011.97 1009.65 1009.50 1009.35 1009.26 1009.11 1008.85 1008.60 1008.69 1008.90 1009.04 1009.85 1010.90 1012.67 1014.31 1015.21 1016.68 1018.00 1018.54 1018.21 1019.23 1019.38 1021.41 1021.91 1022.18 1022.53 1023.92 1024.64 1025.25 1025.97 1026.79
1018.38 1018.24 1018.00 1017.65 1017.32 1016.90 1016.13 1014.99 1013.93 1013.57 1013.27 1013.59 1013.83 1013.23 1011.49 1009.66 1009.46 1009.21 1009.24 1009.26 1009.10 1008.78 1008.67 1008.79 1009.22 1010.47 1011.72 1013.05 1014.70 1015.75 1016.86 1017.62 1018.22 1018.07 1018.64 1019.92 1021.42 1021.83 1022.50 1022.74 1024.15 1024.97 1025.69 1026.41 1027.26
1018.22 1018.07 1017.94 1017.58 1017.25 1016.81 1015.88 1014.21 1012.91 1013.10 1012.57 1012.84 1012.88 1012.90 1011.08 1009.95 1009.42 1009.27 1009.08 1009.13 1009.40 1009.33 1009.39 1009.54 1010.35 1011.58 1012.72 1013.54 1014.83 1015.60 1016.59 1017.13 1017.54 1018.13 1018.91 1019.87 1020.84 1021.60 1022.55 1022.92 1024.21 1025.23 1026.03 1026.74 1027.57
1018.06 1017.92 1017.78 1017.56 1017.16 1016.95 1016.04 1014.40 1013.75 1013.59 1013.11 1012.75 1012.29 1011.55 1010.54 1009.74 1009.36 1009.36 1009.24 1009.38 1009.55 1009.80 1010.40 1010.83 1011.65 1012.44 1012.79 1013.17 1013.55 1014.21 1015.40 1016.50 1017.00 1017.31 1018.58 1019.50 1020.64 1021.55 1022.54 1023.49 1024.58 1025.50 1026.25 1027.07 1027.83
1017.83 1017.89 1017.69 1017.53 1017.19 1016.96 1016.95 1016.34 1014.78 1014.77 1014.00 1012.17 1011.59 1011.28 1010.24 1009.89 1009.85 1009.71 1009.55 1009.97 1010.10 1010.61 1011.20 1011.97 1012.28 1012.29 1012.46 1013.05 1013.63 1014.22 1015.27 1016.33 1016.72 1017.27 1018.06 1019.79 1020.86 1021.88 1022.56 1023.54 1024.22 1025.12 1026.22 1027.07 1027.90
1017.66 1017.84 1017.66 1017.51 1017.23 1016.89 1016.74 1015.69 1014.49 1014.54 1014.41 1012.06 1010.79 1010.39 1010.00 1009.97 1010.04 1009.96 1009.98 1010.23 1010.41 1011.04 1011.47 1012.07 1012.25 1012.18 1012.66 1013.46 1014.08 1014.95 1015.53 1016.15 1016.71 1017.36 1018.60 1020.06 1021.73 1022.46 1023.08 1023.81 1024.70 1025.54 1026.07 1026.92 1027.64
1017.49 1017.67 1017.67 1017.47 1017.59 1017.26 1016.46 1015.27 1014.63 1014.73 1014.51 1011.99 1010.43 1009.47 1009.63 1009.78 1010.13 1009.87 1009.82 1010.31 1010.51 1011.46 1011.85 1012.25 1012.16 1012.44 1013.01 1013.62 1014.08 1014.86 1015.15 1015.68 1016.56 1017.70 1019.11 1019.69 1021.71 1022.41 1023.22 1024.17 1025.10 1025.86 1026.42 1027.07 1027.83
1017.35 1017.53 1017.74 1017.76 1017.87 1017.20 1015.97 1015.38 1014.90 1014.81 1014.53 1010.94 1009.82 1008.80 1009.22 1010.08 1010.04 1009.90 1009.70 1010.11 1010.73 1011.26 1011.87 1012.67 1012.57 1012.97 1013.41 1013.71 1013.93 1014.58 1015.03 1015.82 1016.76 1018.05 1019.02 1019.84 1020.97 1021.68 1023.14 1024.50 1025.31 1026.21 1026.81 1027.40 1028.14
1017.12 1017.43 1017.74 1018.06 1017.93 1016.78 1016.05 1015.48 1015.49 1015.62 1013.68 1010.85 1009.67 1009.26 1009.90 1010.14 1010.32 1010.14 1010.06 1010.19 1010.60 1011.78 1012.26 1012.83 1012.94 1013.29 1013.53 1013.75 1014.10 1014.67 1015.56 1016.63 1017.53 1018.56 1019.65 1019.16 1020.34 1021.80 1022.60 1023.37 1025.07 1026.21 1026.93 1027.63 1028.63
1016.98 1017.32 1017.68 1017.50 1017.25 1016.56 1016.06 1016.17 1016.43 1015.11 1012.43 1011.08 1010.17 1009.87 1010.14 1010.47 1010.66 1010.52 1010.67 1010.84 1011.39 1012.88 1013.50 1013.62 1013.79 1013.65 1013.60 1014.24 1014.64 1015.31 1016.60 1017.88 1019.14 1019.74 1019.55 1019.01 1020.41 1021.72 1022.45 1022.64 1023.91 1025.68 1026.80 1027.77 1028.84
1016.92 1017.30 1017.35 1017.17 1016.79 1017.07 1016.64 1016.98 1015.97 1013.43 1011.79 1010.45 1010.05 1010.21 1010.56 1010.58 1010.82 1010.98 1011.35 1011.72 1012.12 1012.58 1013.85 1014.42 1014.78 1014.26 1014.04 1014.46 1015.01 1015.76 1016.76 1017.99 1018.93 1019.83 1019.83 1019.89 1021.33 1022.07 1022.75 1022.83 1024.07 1025.35 1026.62 1027.96 1029.30
1017.04 1017.64 1017.58 1016.75 1016.64 1017.37 1017.17 1016.97 1014.25 1012.51 1010.86 1010.26 1010.32 1010.73 1010.78 1010.64 1010.84 1011.35 1011.87 1012.34 1012.53 1012.74 1013.58 1014.51 1014.86 1014.60 1014.47 1014.69 1015.24 1015.73 1016.61 1017.27 1018.47 1019.58 1020.57 1021.10 1022.36 1022.90 1023.33 1023.90 1024.72 1025.83 1027.09 1028.51 1029.64
1017.09 1017.61 1017.28 1016.12 1016.50 1017.33 1017.28 1015.67 1013.82 1011.49 1009.99 1009.48 1009.96 1010.24 1010.75 1010.79 1011.10 1011.63 1012.29 1012.45 1012.84 1012.96 1013.27 1014.41 1015.23 1015.15 1015.03 1015.12 1015.28 1015.61 1016.36 1017.50 1018.87 1020.29 1021.14 1021.44 1022.03 1022.10 1023.02 1023.85 1024.92 1026.06 1027.30 1028.69 1029.80
1016.94 1017.40 1016.31 1015.74 1016.27 1017.50 1017.08 1015.12 1013.09 1010.77 1010.40 1009.47 1009.47 1009.93 1010.33 1010.84 1011.37 1012.04 1012.64 1012.89 1012.87 1013.25 1013.54 1014.22 1015.06 1015.97 1015.62 1015.52 1015.47 1016.01 1016.53 1017.59 1018.77 1020.17 1021.21 1021.86 1021.33 1020.83 1021.67 1022.90 1024.29 1025.85 1027.16 1028.51 1029.74
1017.03 1017.51 1016.61 1016.13 1016.81 1017.04 1016.35 1014.71 1012.90 1010.98 1010.38 1009.48 1008.88 1009.12 1009.86 1010.69 1011.84 1012.51 1013.08 1013.35 1013.34 1013.45 1014.31 1014.84 1015.66 1016.27 1016.19 1015.81 1015.67 1015.87 1016.48 1017.49 1019.10 1020.36 1021.12 1021.96 1021.06 1020.77 1021.27 1022.44 1023.96 1025.72 1027.34 1028.68 1029.61
1017.06 1017.39 1016.88 1016.65 1016.91 1016.87 1016.07 1014.58 1013.53 1011.68 1010.62 1009.88 1008.95 1008.75 1009.27 1010.80 1012.35 1013.27 1013.84 1014.32 1013.95 1014.29 1014.72 1015.10 1016.17 1016.97 1017.01 1016.87 1016.32 1016.26 1016.50 1017.16 1018.50 1019.75 1020.94 1022.07 1021.34 1021.24 1021.82 1023.10 1024.31 1025.79 1027.37 1028.54 1029.55
1016.59 1017.64 1017.85 1017.31 1016.72 1016.02 1015.96 1014.77 1013.42 1011.80 1011.20 1010.63 1010.04 1009.06 1009.59 1011.07 1012.18 1013.79 1014.48 1014.86 1014.73 1014.90 1015.14 1015.34 1016.42 1016.90 1017.04 1016.77 1016.52 1016.63 1016.63 1017.14 1018.19 1019.69 1020.46 1020.92 1021.19 1022.03 1022.68 1023.38 1024.68 1026.09 1027.27 1028.41 1029.32
1016.29 1016.24 1015.82 1016.80 1016.48 1015.83 1015.31 1014.57 1013.42 1012.34 1011.22 1010.46 1009.96 1009.71 1009.96 1011.74 1012.79 1013.98 1014.85 1015.39 1015.58 1015.64 1015.77 1016.18 1017.19 1017.40 1017.53 1017.32 1017.04 1016.89 1016.93 1017.25 1017.99 1018.76 1019.85 1020.17 1021.00 1021.48 1022.21 1023.22 1024.55 1025.89 1027.30 1028.32 1029.25
1016.49 1016.17 1015.73 1015.22 1015.18 1015.73 1014.75 1014.41 1013.50 1012.35 1011.96 1010.90 1010.63 1010.30 1010.35 1011.20 1011.48 1013.48 1014.16 1015.07 1015.44 1016.28 1016.57 1017.08 1018.04 1018.27 1018.55 1018.16 1017.80 1017.42 1017.13 1017.21 1017.72 1018.26 1018.91 1019.70 1020.86 1021.55 1022.22 1023.66 1025.02 1025.99 1027.04 1028.11 1029.14
1016.42 1015.38 1015.46 1015.08 1015.05 1015.33 1014.35 1013.50 1013.16 1012.81 1012.12 1011.57 1010.77 1011.13 1011.66 1011.75 1011.87 1012.60 1013.29 1014.23 1014.96 1016.15 1017.28 1017.89 1018.85 1019.74 1019.92 1019.46 1018.72 1018.10 1017.35 1017.25 1017.57 1018.16 1018.91 1019.79 1020.58 1022.02 1023.12 1023.90 1024.81 1025.78 1026.77 1028.02 1029.22
Thickness
5693 5697 5701 5707 5712 5717 5723 5728 5734 5743 5751 5758 5766 5776 5787 5796 5809 5814 5805 5822 5829 5834 5836 5840 5846 5839 5841 5830 5832 5820 5760 5734 5740 5742 5730 5745 5741 5739 5738 5729 5725 5720 5705 5697 5690
5690 5694 5700 5705 5710 5716 5721 5727 5734 5742 5751 5760 5768 5777 5788 5794 5802 5802 5824 5831 5834 5835 5834 5824 5818 5824 5815 5821 5818 5796 5752 5758 5766 5759 5745 5744 5745 5734 5724 5718 5706 5698 5693 5688 5681
5687 5691 5697 5703 5710 5715 5721 5729 5735 5742 5750 5759 5768 5778 5788 5794 5793 5800 5827 5832 5836 5836 5833 5828 5826 5819 5806 5812 5801 5781 5752 5766 5757 5757 5752 5738 5732 5730 5720 5697 5694 5685 5680 5677 5672
5685 5690 5695 5701 5708 5715 5721 5727 5735 5743 5750 5757 5767 5778 5789 5794 5762 5811 5827 5832 5835 5836 5829 5824 5821 5811 5792 5787 5794 5765 5762 5766 5750 5750 5744 5731 5725 5710 5710 5695 5693 5686 5679 5672 5664
5680 5687 5693 5700 5707 5714 5721 5728 5736 5744 5750 5756 5765 5777 5789 5780 5785 5822 5827 5830 5834 5832 5819 5816 5805 5803 5785 5780 5778 5760 5751 5752 5747 5740 5734 5732 5713 5707 5697 5697 5694 5686 5677 5665 5656
5675 5682 5690 5697 5705 5713 5721 5728 5735 5742 5750 5755 5764 5775 5777 5764 5815 5821 5825 5827 5825 5823 5817 5816 5806 5807 5790 5780 5774 5760 5751 5741 5737 5731 5724 5722 5710 5709 5691 5695 5686 5678 5666 5658 5652
5671 5678 5685 5693 5701 5709 5719 5728 5735 5743 5751 5755 5763 5769 5769 5775 5814 5819 5821 5821 5825 5823 5813 5820 5817 5806 5794 5769 5774 5760 5734 5726 5725 5726 5716 5722 5696 5691 5695 5693 5679 5669 5660 5652 5644
5665 5674 5681 5690 5698 5707 5717 5728 5738 5745 5752 5755 5760 5767 5762 5806 5811 5813 5818 5816 5825 5828 5824 5824 5822 5807 5793 5782 5764 5748 5737 5713 5725 5729 5717 5714 5677 5689 5691 5684 5667 5661 5654 5647 5636
5659 5668 5677 5686 5694 5703 5714 5727 5740 5747 5753 5755 5757 5761 5757 5804 5795 5810 5814 5805 5812 5819 5824 5825 5814 5790 5781 5755 5734 5737 5711 5716 5715 5727 5719 5700 5677 5686 5682 5679 5664 5656 5647 5641 5630
5654 5663 5671 5680 5689 5698 5711 5728 5743 5747 5755 5755 5759 5749 5769 5773 5794 5803 5812 5810 5800 5801 5799 5798 5783 5763 5754 5739 5708 5718 5713 5714 5705 5713 5708 5691 5680 5681 5674 5673 5658 5648 5639 5634 5625
5648 5657 5666 5675 5684 5691 5705 5720 5720 5724 5736 5735 5746 5752 5767 5785 5797 5793 5803 5796 5796 5789 5765 5776 5754 5739 5754 5756 5755 5742 5724 5708 5712 5718 5700 5691 5677 5671 5666 5662 5647 5640 5635 5628 5620
5643 5650 5660 5669 5678 5685 5691 5693 5710 5715 5707 5742 5751 5756 5773 5780 5766 5780 5796 5775 5774 5756 5765 5751 5738 5759 5766 5758 5744 5734 5716 5710 5717 5717 5703 5681 5674 5666 5666 5658 5651 5645 5635 5626 5615
5638 5643 5653 5662 5671 5678 5682 5695 5711 5716 5698 5727 5751 5755 5762 5770 5759 5764 5778 5771 5763 5755 5753 5740 5750 5767 5754 5737 5730 5721 5709 5707 5707 5714 5696 5681 5662 5663 5663 5654 5648 5642 5635 5625 5615
5631 5638 5646 5655 5660 5667 5674 5696 5703 5709 5673 5707 5734 5752 5761 5764 5750 5774 5780 5769 5763 5741 5747 5747 5762 5754 5740 5730 5730 5712 5729 5724 5710 5694 5669 5683 5638 5656 5652 5646 5642 5634 5626 5618 5610
5622 5630 5637 5645 5649 5659 5677 5688 5694 5695 5638 5720 5731 5767 5759 5746 5753 5758 5779 5767 5750 5753 5750 5736 5744 5740 5728 5730 5737 5721 5732 5720 5712 5688 5682 5675 5651 5652 5650 5636 5631 5622 5617 5608 5599
5613 5619 5627 5634 5641 5658 5669 5679 5679 5648 5634 5707 5729 5731 5732 5740 5743 5753 5758 5769 5765 5742 5742 5739 5750 5740 5734 5738 5734 5731 5718 5699 5691 5676 5653 5674 5669 5646 5646 5645 5629 5620 5613 5603 5586
5603 5608 5616 5626 5635 5652 5660 5659 5632 5625 5695 5699 5708 5724 5724 5723 5730 5738 5736 5735 5724 5708 5713 5725 5725 5736 5739 5720 5724 5713 5685 5654 5651 5645 5647 5681 5657 5644 5641 5645 5634 5617 5607 5595 5581
5591 5595 5604 5616 5630 5636 5642 5630 5624 5659 5685 5711 5712 5712 5707 5720 5723 5725 5721 5715 5727 5724 5701 5692 5688 5717 5729 5717 5701 5699 5683 5651 5651 5641 5653 5666 5637 5634 5638 5639 5629 5619 5606 5589 5570
5576 5578 5588 5604 5615 5618 5619 5604 5637 5668 5699 5699 5701 5690 5699 5714 5718 5718 5712 5708 5720 5725 5702 5692 5693 5718 5719 5718 5709 5698 5680 5688 5666 5660 5640 5636 5632 5634 5632 5626 5620 5609 5597 5573 5557
5560 5562 5575 5591 5599 5601 5599 5614 5646 5684 5706 5704 5685 5696 5685 5700 5706 5705 5703 5717 5713 5724 5723 5706 5682 5705 5709 5711 5708 5697 5696 5665 5650 5639 5636 5635 5627 5631 5625 5620 5613 5602 5585 5568 5554
5544 5547 5567 5580 5587 5577 5581 5616 5657 5685 5690 5690 5688 5687 5695 5696 5701 5698 5699 5712 5718 5716 5717 5710 5688 5686 5698 5688 5683 5680 5672 5669 5657 5636 5625 5615 5631 5650 5639 5629 5616 5600 5583 5565 5548
5529 5534 5553 5565 5557 5567 5587 5624 5653 5668 5680 5690 5699 5704 5695 5697 5693 5693 5690 5700 5708 5716 5700 5701 5679 5665 5678 5692 5695 5687 5676 5662 5633 5640 5628 5609 5619 5639 5638 5630 5612 5595 5574 5553 5540
5524 5529 5542 5551 5544 5565 5589 5616 5631 5650 5665 5676 5692 5707 5705 5690 5675 5677 5679 5690 5698 5696 5692 5694 5671 5649 5657 5666 5677 5672 5673 5669 5650 5633 5626 5601 5615 5632 5626 5613 5602 5581 5562 5545 5529
5521 5516 5521 5536 5552 5576 5586 5601 5617 5649 5654 5664 5672 5694 5690 5681 5678 5666 5671 5679 5685 5686 5681 5687 5670 5659 5642 5660 5666 5662 5668 5664 5646 5617 5619 5617 5625 5616 5612 5604 5590 5570 5552 5538 5525
5516 5525 5538 5529 5552 5571 5585 5596 5613 5623 5652 5664 5666 5679 5676 5663 5667 5659 5664 5668 5673 5675 5680 5674 5657 5665 5662 5664 5665 5662 5657 5654 5644 5635 5621 5628 5624 5619 5611 5600 5585 5564 5547 5534 5520
5512 5526 5539 5551 5570 5564 5576 5586 5603 5623 5634 5649 5658 5671 5675 5667 5679 5661 5667 5666 5667 5668 5666 5661 5644 5654 5647 5650 5650 5648 5647 5645 5640 5638 5630 5625 5616 5610 5602 5586 5571 5559 5545 5531 5514
5506 5524 5535 5546 5557 5555 5571 5595 5606 5619 5629 5641 5657 5652 5654 5667 5676 5674 5676 5668 5665 5656 5649 5647 5638 5624 5630 5633 5635 5627 5641 5640 5639 5635 5630 5620 5615 5600 5590 5582 5568 5555 5545 5523 5507